Mobile, AL

10:01 AM CDT on September 23, 2017 (GMT -0500)
Mobile Regional

Weather History for KMOB - September, 2012

Change the Weather History Date:

Sunday, September 30, 2012

  Actual Average Record
Temperature  
Mean Temperature 75 °F 73 °F  
Max Temperature 78 °F 84 °F 93 °F (1933)
Min Temperature 71 °F 63 °F 45 °F (1967)
Degree Days  
Heating Degree Days 0 0  
Month to date heating degree days 0 0  
Since 1 July heating degree days 0 2  
Cooling Degree Days 10 9  
Month to date cooling degree days 371 377  
Year to date cooling degree days 2554 2304  
Growing Degree Days 24 (Base 50)    
Moisture  
Dew Point 71 °F    
Average Humidity 91    
Maximum Humidity 100    
Minimum Humidity 82    
Precipitation  
Precipitation 1.68 in 0.15 in 5.40 in (1965)
Month to date precipitation 4.13 5.11  
Year to date precipitation 64.00 52.27  
Sea Level Pressure  
Sea Level Pressure 29.76 in    
Wind  
Wind Speed 8 mph (SSE)    
Max Wind Speed 26 mph    
Max Gust Speed 37 mph    
Visibility 6 miles    
Events Rain    
T = Trace of Precipitation, MM = Missing Value Source: NWS Daily Summary

Daily Weather History Graph

Daily Weather History Graph

Search for Another Location

Airport or City:

Trip Planner

Search our weather history database for the weather conditions in past years. The results will help you decide how hot, cold, wet, or windy it might be!

Date:

Astronomy

Sep. 30, 2012 Rise Set
Actual Time 6:46 AM CDT 6:38 PM CDT
Civil Twilight 6:22 AM CDT 7:02 PM CDT
Nautical Twilight 5:54 AM CDT 7:30 PM CDT
Astronomical Twilight 5:26 AM CDT 7:58 PM CDT
Moon 6:50 PM CDT (9/30) 7:10 AM CDT (9/30)
Length of Visible Light 12h 40m
Length of Day
11h 52m
Full, 100% of the Moon is Illuminated
Sep 30
Full
Oct 8
Last Quarter
Oct 15
New
Oct 21
First Quarter
Oct 29
Full

Hourly Weather History & Observations

Time (CDT) Temp. Dew Point Humidity Pressure Visibility Wind Dir Wind Speed Gust Speed Precip Events Conditions
12:56 AM 71.1 °F 69.1 °F 93% 29.87 in 10.0 mi East 4.6 mph - 0.00 in   Overcast
1:56 AM 72.0 °F 69.1 °F 91% 29.86 in 10.0 mi Calm Calm - N/A   Mostly Cloudy
2:56 AM 71.1 °F 69.1 °F 93% 29.84 in 10.0 mi Calm Calm - N/A   Overcast
3:06 AM 71.6 °F 69.8 °F 94% 29.84 in 10.0 mi East 3.5 mph - N/A   Overcast
3:35 AM 71.6 °F 69.8 °F 94% 29.83 in 10.0 mi Calm Calm - N/A   Mostly Cloudy
3:56 AM 71.1 °F 69.1 °F 93% 29.82 in 8.0 mi East 3.5 mph - N/A   Mostly Cloudy
4:56 AM 72.0 °F 70.0 °F 93% 29.82 in 8.0 mi SSE 3.5 mph - 0.01 in Rain Light Rain
5:20 AM 71.6 °F 69.8 °F 94% 29.82 in 9.0 mi ESE 4.6 mph - 0.00 in Rain Light Rain
5:43 AM 71.6 °F 69.8 °F 94% 29.81 in 9.0 mi ESE 5.8 mph - 0.00 in   Overcast
5:56 AM 72.0 °F 70.0 °F 93% 29.80 in 9.0 mi SE 8.1 mph - 0.00 in   Overcast
6:56 AM 72.0 °F 71.1 °F 97% 29.80 in 10.0 mi ESE 5.8 mph - N/A   Mostly Cloudy
7:56 AM 73.0 °F 71.1 °F 93% 29.80 in 10.0 mi ESE 8.1 mph - N/A   Overcast
8:39 AM 73.4 °F 71.6 °F 94% 29.82 in 10.0 mi SE 9.2 mph - N/A   Mostly Cloudy
8:56 AM 73.0 °F 72.0 °F 96% 29.81 in 7.0 mi ESE 8.1 mph - 0.01 in Rain Light Rain
9:43 AM 73.4 °F 71.6 °F 94% 29.82 in 2.0 mi South 8.1 mph - 0.09 in Rain Heavy Rain
9:48 AM 73.4 °F 71.6 °F 94% 29.83 in 1.0 mi South 9.2 mph - 0.19 in Rain Heavy Rain
9:56 AM 73.0 °F 71.1 °F 93% 29.82 in 2.0 mi South 8.1 mph - 0.25 in Rain Heavy Rain
10:11 AM 73.4 °F 71.6 °F 94% 29.81 in 4.0 mi SSE 6.9 mph - 0.05 in Rain Rain
10:56 AM 73.0 °F 70.0 °F 90% 29.82 in 3.0 mi South 10.4 mph - 0.16 in Rain Heavy Rain
11:03 AM 73.4 °F 71.6 °F 94% 29.83 in 2.0 mi South 8.1 mph - 0.04 in Rain Heavy Rain
11:05 AM 71.6 °F 69.8 °F 94% 29.83 in 2.0 mi South 8.1 mph - 0.05 in Rain Heavy Rain
11:19 AM 71.6 °F 69.8 °F 94% 29.82 in 1.0 mi South 5.8 mph - 0.12 in Rain Heavy Rain
11:33 AM 71.6 °F 69.8 °F 94% 29.82 in 1.0 mi South 6.9 mph 17.3 mph 0.25 in Rain Heavy Rain
11:42 AM 71.6 °F 69.8 °F 94% 29.82 in 3.0 mi South 8.1 mph - 0.30 in Rain Heavy Rain
11:56 AM 72.0 °F 70.0 °F 93% 29.81 in 3.0 mi South 6.9 mph - 0.36 in Rain Heavy Rain
12:44 PM 73.4 °F 71.6 °F 94% 29.80 in 9.0 mi SE 10.4 mph - 0.16 in Rain Light Rain
12:56 PM 72.0 °F 71.1 °F 97% 29.78 in 4.0 mi SSE 6.9 mph - 0.20 in Rain Rain
1:05 PM 73.4 °F 71.6 °F 94% 29.78 in 10.0 mi SSE 9.2 mph - 0.00 in Rain Light Rain
1:20 PM 73.4 °F 71.6 °F 94% 29.77 in 10.0 mi SE 6.9 mph - 0.00 in   Overcast
1:56 PM 75.9 °F 71.1 °F 85% 29.74 in 10.0 mi SSE 6.9 mph - 0.00 in   Mostly Cloudy
2:56 PM 77.0 °F 71.1 °F 82% 29.70 in 10.0 mi SE 8.1 mph - N/A   Mostly Cloudy
3:56 PM 77.0 °F 72.0 °F 84% 29.69 in 10.0 mi SE 9.2 mph - N/A   Mostly Cloudy
4:21 PM 77.0 °F 73.4 °F 89% 29.68 in 7.0 mi SE 8.1 mph - N/A   Mostly Cloudy
4:56 PM 75.9 °F 73.0 °F 91% 29.66 in 3.0 mi SSE 17.3 mph 27.6 mph 0.02 in Rain Rain
5:56 PM 77.0 °F 73.9 °F 90% 29.65 in 7.0 mi SSE 10.4 mph - 0.00 in   Mostly Cloudy
6:41 PM 77.0 °F 73.4 °F 89% 29.65 in 5.0 mi SSE 9.2 mph - N/A   Mostly Cloudy
6:56 PM 78.1 °F 73.9 °F 87% 29.65 in 5.0 mi South 10.4 mph - N/A   Mostly Cloudy
7:56 PM 77.0 °F 73.9 °F 90% 29.65 in 5.0 mi South 11.5 mph - 0.02 in Rain Light Rain
8:56 PM 77.0 °F 73.9 °F 90% 29.63 in 5.0 mi SSE 10.4 mph - 0.05 in   Scattered Clouds
9:56 PM 77.0 °F 75.0 °F 94% 29.63 in 7.0 mi SSE 9.2 mph - 0.06 in   Scattered Clouds
10:12 PM 77.0 °F 75.2 °F 94% 29.64 in 10.0 mi SSE 13.8 mph 18.4 mph N/A   Mostly Cloudy
10:36 PM 78.8 °F 75.2 °F 89% 29.63 in 3.0 mi SSW 24.2 mph 36.8 mph 0.11 in Rain Heavy Rain
10:56 PM 75.0 °F 73.0 °F 94% 29.63 in 3.0 mi SSW 13.8 mph 24.2 mph 0.31 in Rain Heavy Rain
11:56 PM 73.9 °F 71.1 °F 91% 29.61 in 6.0 mi South 19.6 mph 26.5 mph 0.13 in Rain Light Rain